Regional Weather Roundup
Issued by NWS Upton, NY

Current Version | Previous Version | Text Only | Print | Product List | Glossary On
Versions: 1 2 3 4 5 6 7 8 9 10 11 12 13 14 15 16 17 18 19 20 21 22 23 24 25 26 27 28 29 30 31 32 33 34 35 36 37 38 39 40 41 42 43 44 45 46 47 48 49 50
000
ASUS41 KOKX 311304
RWROKX

REGIONAL WEATHER ROUNDUP
NATIONAL WEATHER SERVICE NEW YORK NY
900 AM EDT TUE MAY 31 2016

NOTE: "FAIR" INDICATES FEW OR NO CLOUDS BELOW 12,000 FEET WITH NO
SIGNIFICANT WEATHER AND/OR OBSTRUCTIONS TO VISIBILITY.

NYZ071-072-176-178-NJZ106-104-311400-
NEW YORK CITY METRO AREA


CITY           SKY/WX    TMP DP  RH WIND       PRES   REMARKS
CENTRAL PARK   CLOUDY    74  65  73 VRB3      29.99R
LAGUARDIA APRT PTSUNNY   75  65  71 NE8       29.96R
KENNEDY INTL   CLOUDY    69  67  93 CALM      29.98R FOG
NEWARK/LIBERTY CLOUDY    75  66  73 NE7       29.96R
BRNX BOT. GARD   N/A     75  64  69 NE5       29.97F
TETERBORO      MOSUNNY   76  62  62 NE6       29.95R
$$

NYZ177-179-078>081-311400-
LONG ISLAND NEW YORK

CITY           SKY/WX    TMP DP  RH WIND       PRES   REMARKS
FARMINGDALE    CLOUDY    69  67  93 VRB3      29.98R VSB 1
ISLIP          NOT AVBL
SHIRLEY        CLOUDY    69  67  93 SW3       29.98S
RIVERHEAD        N/A     73  70  88 CALM      29.97R
WESTHAMPTON    FOG       65  64  97 S6        30.00R VSB 3/4
EAST HAMPTON   CLOUDY    63  63  98 SW6       29.97R FOG
MONTAUK POINT    N/A     62  62 100 S5        29.99R
$$

NYZ052-065-067-311400-
HUDSON VALLEY

CITY           SKY/WX    TMP DP  RH WIND       PRES   REMARKS
WHITE PLAINS   MOSUNNY   75  60  59 NE5       29.98R
NEWBURGH       MOSUNNY   68  66  94 CALM      30.00R
MONTGOMERY     CLOUDY    74  64  71 CALM      29.98S
POUGHKEEPSIE   CLOUDY    75  61  61 N6        29.97S
ALBANY         MOSUNNY   72  53  51 W7        29.98R
$$

NJZ001-105-106-008-010-013-015-019>022-104-311400-
NEW JERSEY

CITY           SKY/WX    TMP DP  RH WIND       PRES   REMARKS
NEWARK/LIBERTY CLOUDY    75  66  73 NE7       29.96R
TETERBORO      MOSUNNY   76  62  62 NE6       29.95R
CALDWELL       CLOUDY    75  64  68 NE5       29.97R
MORRISTOWN     MOSUNNY   75  64  69 NE7       29.97R
SOMERVILLE     SUNNY     77  65  66 VRB6      29.95R
SUSSEX         PTSUNNY   74  56  53 N9        29.99S
ANDOVER          N/A     72  62  71 VRB3      30.00R
TRENTON        CLOUDY    75  64  68 N6        29.96S
MILLVILLE      PTSUNNY   71  68  90 W3        29.97F
ATLANTIC CITY  CLOUDY    69  68  96 CALM      29.98R
WRIGHTSTOWN    CLOUDY    70  68  94 SW3       29.95S
TOMS RIVER     CLOUDY    72  66  83 SW5       29.98S
BELMAR         CLOUDY    72  68  87 SW5       29.98S
$$

PAZ047>061-062-071-311400-
EASTERN PENNSYLVANIA

CITY           SKY/WX    TMP DP  RH WIND       PRES   REMARKS
PHILADELPHIA   MOSUNNY   74  67  78 SW6       29.97S
ALLENTOWN      SUNNY     75  62  64 CALM      29.99R
SCRANTON       PTSUNNY   66  61  84 CALM      30.02S HAZE
$$

CTZ002-004>006-009-010-012-RIZ004-006-007-MAZ004-011-015-311400-
SOUTHERN NEW ENGLAND
 IN CT

CITY           SKY/WX    TMP DP  RH WIND       PRES   REMARKS
BRADLEY INTL   CLOUDY    75  56  51 NW7       29.96R
HARTFORD       CLOUDY    78  55  44 N8        29.96R
DANBURY        CLOUDY    75  57  53 NE8       29.99R
WTRBRY/OXFORD  PTSUNNY   72  55  56 N9        30.00R
BRIDGEPORT     PTSUNNY   72  67  84 SW6       29.97R
MERIDEN        CLOUDY    77  57  50 NW9       29.96S
NEW HAVEN      PTSUNNY   71  68  90 CALM      29.96S FOG
CHESTER        FAIR      73  66  78 VRB3      29.97S
GROTON         FOG       65  65 100 S7        29.96S VSB 1
WILLIMANTIC    MOSUNNY   76  62  62 N6        29.96S

 IN RI

CITY           SKY/WX    TMP DP  RH WIND       PRES   REMARKS
PROVIDENCE     PTSUNNY   74  66  76 W6        29.96R
BLOCK ISLAND   LGT RAIN  61  61 100 SW15      29.98S VSB 1/4
WESTERLY       CLOUDY    65  62  90 CALM      29.97S FOG

 IN MA

CITY           SKY/WX    TMP DP  RH WIND       PRES   REMARKS
BOSTON         PTSUNNY   76  61  59 W7G17     29.92S
WORCESTER      CLOUDY    71  54  54 NW13      29.97R
WESTFIELD      MOSUNNY   73  55  53 NW7       29.96S
PROVINCETOWN   CLOUDY    65  64  97 SW12      29.95R
NANTUCKET      CLOUDY    64  62  93 SW21G28   29.99R FOG
$$

ANZ330-335-338-340-345-350-353-355-311400-
COASTAL MARINE OBSERVATIONS


STATION/POSITION TIME  SKY/WX   TEMP    WIND        PRES    VSBY  WAVE
                                AIR SEA DIR/SP/G                  HT/PER
                 (UTC)          (F)     (DEG/KT/KT) (MB)    (MI)  (FT/S)
NY HARB ENTRANCE 1150            60 58  180/  4/  6 1014.2          4/ 7
20S FIRE ISLAND  1150            62 61  190/  6/  8 1014.8          4/ 7
GREAT SOUTH BAY  1215            64 70  230/  6/  8   N/A
23 SSW MONTAUK P 1250            62 58  240/ 14/ 16 1014.8          4/ 7
15 E BARNEGAT LI 1222               61                N/A           4/ 7
HUDSON CANYON    1150            63 59              1015.5          4/ 7
KINGS POINT      1200            71 60              1014.2
EXECUTION ROCKS  NOT AVBL
CENTRAL LI SOUND 1215            65     280/  4/  4   N/A           0
EASTERN LI SOUND 1200            61 55  270/  2/  2   N/A
ROBBINS REEF     1212            69     150/  3/  4 1013.7
$$


>>>>>>>>>>>>>>>>>>>>>>>>>>>> KEY <<<<<<<<<<<<<<<<<<<<<<<<<<<
>                                                          <
>     SKY/WX - SKY CONDITION/PRESENT WEATHER               <
>     TMP    - TEMPERATURE IN FAHRENHEIT                   <
>     DP     - DEWPOINT IN FAHRENHEIT                      <
>     RH     - RELATIVE HUMIDITY IN PERCENT                <
>     WIND   - DIRECTION AND SPEED IN MPH                  <
>     PRES   - MEAN SEA LEVEL PRESSURE IN INCHES OF HG     <
>     WCI    - WIND CHILL INDEX                            <
>     VSB    - VISIBILITY IN MILES                         <
>     HX     - HEAT INDEX                                  <
>     TC     - TEMPERATURE IN CELSIUS                      <
>     VRB    - VARIABLE WIND DIRECTION                     <
>                                                          <
>>>>>>>>>>>>>>>>>>>>>>>>>>>> KEY <<<<<<<<<<<<<<<<<<<<<<<<<<<





USA.gov is the U.S. government's official web portal to all federal, state and local government web resources and services.